TimePST,TemperatureF,Dew PointF,Humidity,Sea Level PressureIn,VisibilityMPH,Wind Direction,Wind SpeedMPH,Gust SpeedMPH,PrecipitationIn,Events,Conditions,WindDirDegrees,DateUTC
12:54 AM,43.0,39.9,89,30.26,10.0,SSE,4.6,-,N/A,,Overcast,160,2012-12-07 08:54:00
1:54 AM,43.0,39.9,89,30.25,10.0,South,6.9,-,N/A,,Overcast,170,2012-12-07 09:54:00
2:54 AM,43.0,41.0,93,30.26,10.0,South,3.5,-,N/A,,Overcast,180,2012-12-07 10:54:00
3:17 AM,42.8,39.2,87,30.24,10.0,South,6.9,-,N/A,,Overcast,180,2012-12-07 11:17:00
3:54 AM,43.0,39.9,89,30.24,10.0,South,6.9,-,N/A,,Overcast,190,2012-12-07 11:54:00
4:01 AM,42.8,39.2,87,30.23,10.0,South,6.9,-,N/A,,Overcast,190,2012-12-07 12:01:00
4:45 AM,42.8,39.2,87,30.23,10.0,South,9.2,-,N/A,,Overcast,180,2012-12-07 12:45:00
4:54 AM,43.0,39.9,89,30.24,10.0,South,8.1,-,N/A,,Overcast,180,2012-12-07 12:54:00
5:54 AM,43.0,39.9,89,30.23,10.0,South,5.8,-,N/A,,Overcast,190,2012-12-07 13:54:00
6:54 AM,43.0,39.0,86,30.23,10.0,South,6.9,-,N/A,,Overcast,180,2012-12-07 14:54:00
7:54 AM,43.0,39.9,89,30.23,10.0,South,8.1,-,N/A,,Overcast,180,2012-12-07 15:54:00
8:54 AM,44.1,41.0,89,30.24,10.0,SSW,10.4,-,N/A,,Overcast,200,2012-12-07 16:54:00
9:54 AM,45.0,41.0,86,30.24,10.0,South,12.7,-,N/A,,Mostly Cloudy,190,2012-12-07 17:54:00
10:54 AM,46.9,42.1,83,30.23,10.0,South,12.7,-,N/A,,Mostly Cloudy,180,2012-12-07 18:54:00
11:10 AM,46.4,42.8,87,30.22,10.0,South,10.4,-,N/A,,Mostly Cloudy,180,2012-12-07 19:10:00
11:54 AM,46.9,42.1,83,30.22,10.0,South,10.4,-,N/A,,Overcast,170,2012-12-07 19:54:00
12:54 PM,46.9,43.0,86,30.22,10.0,South,11.5,-,N/A,,Overcast,170,2012-12-07 20:54:00
1:54 PM,48.0,43.0,83,30.21,10.0,South,13.8,-,N/A,,Overcast,180,2012-12-07 21:54:00
2:54 PM,48.9,44.1,83,30.21,10.0,South,9.2,-,N/A,,Mostly Cloudy,190,2012-12-07 22:54:00
3:26 PM,48.2,44.6,87,30.21,10.0,SW,10.4,-,N/A,,Overcast,220,2012-12-07 23:26:00
3:54 PM,48.0,45.0,89,30.22,10.0,SSW,6.9,-,0.00,Rain,Light Rain,200,2012-12-07 23:54:00
4:54 PM,46.4,44.6,93,30.20,10.0,South,10.4,-,N/A,,Mostly Cloudy,170,2012-12-08 00:54:00
5:54 PM,45.0,43.0,93,30.22,10.0,South,6.9,-,N/A,,Mostly Cloudy,170,2012-12-08 01:54:00
6:54 PM,45.0,44.1,97,30.22,10.0,South,8.1,-,N/A,,Overcast,190,2012-12-08 02:54:00
7:54 PM,46.0,44.1,93,30.24,10.0,SW,4.6,-,N/A,,Overcast,230,2012-12-08 03:54:00
8:12 PM,46.4,42.8,87,30.24,8.0,West,4.6,-,0.01,Rain,Light Rain,280,2012-12-08 04:12:00
8:54 PM,45.0,44.1,97,30.24,10.0,West,3.5,-,0.01,,Overcast,260,2012-12-08 04:54:00
9:54 PM,45.0,44.1,97,30.25,10.0,Calm,Calm,-,N/A,,Overcast,0,2012-12-08 05:54:00
10:54 PM,42.1,41.0,96,30.26,8.0,Calm,Calm,-,N/A,,Scattered Clouds,0,2012-12-08 06:54:00
11:35 PM,39.2,39.2,100,30.25,0.8,Calm,Calm,-,N/A,,Mostly Cloudy,0,2012-12-08 07:35:00
11:54 PM,39.0,39.0,100,30.26,0.5,Calm,Calm,-,N/A,Fog,Fog,0,2012-12-08 07:54:00